Owensboro, KY

2:31 PM CDT on August 30, 2016 (GMT -0500)
Owensboro-Daviess County

Weather History for KOWB - June, 2013

Change the Weather History Date:

Friday, June 21, 2013

  Actual Average Record
Temperature  
Mean Temperature 80 °F -  
Max Temperature 90 °F 86 °F 99 °F (1933)
Min Temperature 70 °F 64 °F 46 °F (1992)
Cooling Degree Days 15    
Growing Degree Days 30 (Base 50)    
Moisture  
Dew Point 69 °F    
Average Humidity 75    
Maximum Humidity 97    
Minimum Humidity 48    
Precipitation  
Precipitation 1.02 in - - ()
Sea Level Pressure  
Sea Level Pressure 30.14 in    
Wind  
Wind Speed 7 mph (SSE)    
Max Wind Speed 25 mph    
Max Gust Speed 38 mph    
Visibility 9 miles    
Events Rain , Thunderstorm    
Averages and records for this station are not official NWS values.
T = Trace of Precipitation, MM = Missing Value Source: NWS Daily Summary

Daily Weather History Graph

Daily Weather History Graph

Search for Another Location

Airport or City:

Trip Planner

Search our weather history database for the weather conditions in past years. The results will help you decide how hot, cold, wet, or windy it might be!

Date:

Astronomy

Jun. 21, 2013 Rise Set
Actual Time 5:27 AM CDT 8:13 PM CDT
Civil Twilight 4:55 AM CDT 8:45 PM CDT
Nautical Twilight 4:16 AM CDT 9:24 PM CDT
Astronomical Twilight 3:32 AM CDT 10:08 PM CDT
Moon 6:25 PM CDT (6/21) 3:40 AM CDT (6/21)
Length of Visible Light 15h 49m
Length of Day
14h 46m
Waxing Gibbous, 95% of the Moon is Illuminated
Jun 21
Waxing Gibbous
Jun 23
Full
Jun 29
Last Quarter
Jul 8
New
Jul 15
First Quarter

Hourly Weather History & Observations

Time (CDT) Temp. Heat Index Dew Point Humidity Pressure Visibility Wind Dir Wind Speed Gust Speed Precip Events Conditions
12:56 AM 72.9 °F - 68.9 °F 87% 30.15 in 10.0 mi SSE 4.6 mph - N/A   Clear
1:56 AM 72.0 °F - 68.9 °F 90% 30.14 in 10.0 mi ESE 5.8 mph - N/A   Clear
2:56 AM 72.0 °F - 68.0 °F 87% 30.14 in 10.0 mi Calm Calm - N/A   Clear
3:56 AM 70.0 °F - 66.9 °F 90% 30.14 in 10.0 mi East 4.6 mph - N/A   Clear
4:56 AM 70.0 °F - 66.9 °F 90% 30.15 in 10.0 mi ESE 3.5 mph - N/A   Partly Cloudy
5:56 AM 70.9 °F - 66.9 °F 87% 30.16 in 10.0 mi ESE 4.6 mph - N/A   Partly Cloudy
6:56 AM 72.9 °F - 68.0 °F 85% 30.16 in 10.0 mi SE 4.6 mph - N/A   Partly Cloudy
7:56 AM 73.9 °F - 68.0 °F 82% 30.17 in 10.0 mi SE 9.2 mph - N/A   Scattered Clouds
8:56 AM 77.0 °F - 68.0 °F 74% 30.19 in 10.0 mi SSE 5.8 mph - N/A   Mostly Cloudy
9:56 AM 81.9 °F 85.6 °F 70.0 °F 67% 30.18 in 10.0 mi Variable 6.9 mph - N/A   Partly Cloudy
10:56 AM 84.9 °F 90.1 °F 70.9 °F 63% 30.18 in 10.0 mi SSE 8.1 mph - N/A   Scattered Clouds
11:56 AM 88.9 °F 95.6 °F 72.0 °F 57% 30.17 in 10.0 mi South 9.2 mph - N/A   Clear
12:56 PM 90.0 °F 96.9 °F 72.0 °F 55% 30.16 in 10.0 mi South 9.2 mph - N/A   Scattered Clouds
1:56 PM 90.9 °F 96.2 °F 70.0 °F 50% 30.14 in 10.0 mi Variable 5.8 mph - N/A   Partly Cloudy
2:56 PM 90.9 °F 96.2 °F 70.0 °F 50% 30.13 in 10.0 mi South 10.4 mph - N/A   Scattered Clouds
3:56 PM 90.9 °F 95.3 °F 68.9 °F 48% 30.10 in 10.0 mi South 8.1 mph - N/A   Scattered Clouds
4:56 PM 90.9 °F 97.3 °F 70.9 °F 52% 30.09 in 10.0 mi SSE 10.4 mph - N/A   Scattered Clouds
5:56 PM 88.9 °F 94.7 °F 70.9 °F 55% 30.10 in 10.0 mi SSE 10.4 mph - 0.00 in   Scattered Clouds
6:23 PM 87.8 °F 92.6 °F 69.8 °F 55% 30.10 in 10.0 mi SSE 8.1 mph - N/A Thunderstorm Mostly Cloudy
6:37 PM 87.8 °F 93.8 °F 71.6 °F 58% 30.11 in 10.0 mi South 9.2 mph - N/A Thunderstorm Mostly Cloudy
6:56 PM 77.9 °F - 70.9 °F 79% 30.14 in 0.5 mi SSW 25.3 mph 38.0 mph 0.20 in Rain , Thunderstorm Heavy Thunderstorms and Rain
7:16 PM 75.2 °F - 66.2 °F 73% 30.15 in 1.0 mi ENE 17.3 mph 34.5 mph 0.58 in Rain , Thunderstorm Heavy Thunderstorms and Rain
7:24 PM 73.4 °F - 68.0 °F 83% 30.15 in 1.0 mi ENE 17.3 mph 34.5 mph 0.70 in Rain , Thunderstorm Heavy Thunderstorms and Rain
7:37 PM 71.6 °F - 66.2 °F 83% 30.14 in 4.0 mi NE 16.1 mph 28.8 mph 0.78 in Rain , Thunderstorm Light Thunderstorms and Rain
7:56 PM 72.0 °F - 70.0 °F 93% 30.16 in 7.0 mi SW 8.1 mph - 0.81 in   Overcast
8:00 PM 71.6 °F - 69.8 °F 94% 30.16 in 7.0 mi WNW 6.9 mph - 0.01 in   Overcast
8:56 PM 73.9 °F - 72.0 °F 93% 30.12 in 10.0 mi South 6.9 mph - 0.01 in   Scattered Clouds
9:56 PM 72.9 °F - 70.9 °F 93% 30.12 in 10.0 mi SSE 5.8 mph - N/A   Clear
10:56 PM 72.0 °F - 70.0 °F 93% 30.11 in 10.0 mi South 6.9 mph - N/A   Clear
11:56 PM 70.9 °F - 70.0 °F 97% 30.11 in 10.0 mi South 6.9 mph - N/A   Clear